Theta_e
277 276 275 275 275 276 275 274 274 273 273 272 272 272 272 272 272 272 272 272 272 272 273 273 273 274 274 274 275 275 274 274 274 274 274 274 274 274 274 275 275 275 276 276 276 276 276 277 279 281 282 283 284 286 291 295 296 296 296 296 297 298 298 299 299 299 300 300 301 301 301 306 317 322 320 318 319 320 321 321 321 321 320 320 320
275 275 274 275 274 274 274 273 273 273 272 272 271 271 271 271 271 271 271 271 272 272 272 273 273 273 274 274 274 274 273 273 273 274 274 273 273 273 274 274 275 275 275 276 275 275 276 278 279 281 282 283 284 285 289 294 296 296 296 296 297 297 297 298 299 299 300 300 301 302 301 303 312 320 320 318 317 318 320 320 319 320 320 319 319
274 274 274 274 273 274 274 273 273 272 271 271 271 271 271 270 270 271 271 271 271 271 272 272 272 273 273 273 273 273 272 272 272 273 273 273 272 273 273 274 274 275 275 275 275 274 276 277 277 278 279 281 283 285 288 292 295 295 296 296 296 297 297 298 299 299 300 300 300 302 302 303 309 317 320 318 318 318 319 319 319 319 319 318 318
274 273 273 273 274 274 274 273 272 271 271 270 270 270 270 270 270 270 270 270 270 271 271 271 271 272 272 272 272 271 271 271 271 272 272 272 272 272 273 273 274 274 274 274 274 274 275 275 275 276 279 281 283 285 287 291 294 295 295 295 296 296 297 297 298 299 300 300 301 302 303 303 308 315 318 317 318 319 319 318 318 318 319 319 318
273 273 273 274 274 274 273 272 271 270 270 270 270 270 270 270 270 270 270 270 270 270 269 270 270 270 270 270 270 270 270 270 270 270 271 271 271 271 272 272 273 273 273 273 273 273 274 274 275 276 278 281 283 284 285 289 293 294 294 295 295 296 297 297 298 299 299 300 301 302 304 305 308 315 317 316 317 318 318 318 318 318 318 318 318
273 273 273 273 273 273 271 271 270 270 269 269 269 269 269 269 269 269 269 268 268 268 268 268 268 268 268 268 268 268 268 268 268 269 269 270 270 271 271 272 272 272 273 273 273 273 273 273 274 275 277 279 281 282 284 287 292 294 294 295 295 295 296 297 298 298 299 300 301 302 304 306 309 314 317 316 316 316 316 317 318 318 317 317 317
274 274 273 273 272 271 270 270 269 269 269 269 269 269 269 268 268 267 267 266 266 266 266 266 266 267 267 267 267 267 267 267 268 268 268 269 269 270 270 271 271 272 272 272 272 273 273 273 273 275 276 277 279 280 281 284 289 292 293 294 295 295 296 297 298 299 299 300 301 302 304 306 309 314 316 316 316 315 315 315 315 316 316 316 316
274 273 272 271 271 270 269 269 269 269 269 268 268 268 267 267 266 265 265 265 264 265 265 265 265 265 265 265 266 266 266 267 267 267 268 268 269 270 270 271 271 271 272 272 272 272 273 273 273 274 275 277 279 280 282 284 288 291 292 293 294 294 294 295 296 297 299 299 300 302 305 306 309 312 314 315 315 314 314 314 313 313 314 315 315
273 272 271 270 270 269 269 268 268 268 268 267 267 266 266 265 264 264 263 263 263 263 263 264 264 264 264 265 265 265 266 266 267 267 268 269 270 270 271 271 271 271 272 272 272 272 272 273 273 274 275 276 279 281 283 285 288 290 292 293 293 293 293 292 293 294 296 298 300 303 305 307 309 311 312 313 313 313 314 314 313 313 314 314 314
272 271 270 269 269 268 268 268 268 267 267 266 266 265 264 264 263 262 262 262 263 263 263 263 263 264 264 264 265 265 266 266 267 268 269 270 271 272 272 272 272 272 272 272 272 273 273 273 274 275 276 277 279 281 282 283 286 288 290 291 292 292 292 292 292 292 294 296 299 303 306 307 309 311 311 313 313 313 313 313 313 313 313 312 312
270 269 269 268 268 268 267 267 266 266 266 265 264 264 263 262 262 262 262 262 262 263 263 263 264 264 264 265 265 266 266 267 268 269 270 272 273 273 273 274 274 274 274 274 274 274 274 275 275 276 277 278 279 281 282 284 285 287 288 290 291 291 291 291 292 292 292 293 297 302 306 307 309 311 312 313 313 313 313 313 312 311 311 312 311
269 268 268 267 267 267 266 266 265 265 265 264 263 262 262 261 261 262 262 262 262 263 263 264 264 264 265 265 266 266 267 268 269 270 271 272 273 274 274 274 275 275 275 275 275 275 275 276 276 277 278 279 280 281 283 284 286 287 288 289 290 291 291 291 291 291 292 292 294 298 304 307 309 311 313 313 312 312 313 312 311 311 311 311 311
268 267 267 267 266 265 265 264 264 264 264 263 262 261 261 261 261 261 262 262 263 263 264 264 264 265 265 265 266 266 267 268 269 270 272 273 274 274 275 275 275 275 275 276 276 276 276 276 276 276 277 279 281 283 284 285 287 288 288 289 290 291 291 291 291 291 291 292 292 294 300 306 309 310 313 314 312 312 312 311 311 311 311 311 311
267 266 266 266 265 264 264 264 264 263 263 262 261 261 261 261 261 262 262 262 263 263 264 264 264 264 265 265 266 266 266 267 269 270 272 273 274 275 276 276 276 276 276 276 276 276 276 276 276 276 276 278 281 283 284 286 287 288 289 290 290 290 290 290 291 291 291 291 292 292 295 303 310 312 312 314 313 312 311 311 311 311 311 311 312
266 266 265 265 264 263 263 263 263 262 262 261 261 260 261 261 261 262 262 263 263 264 264 264 264 264 264 265 265 265 266 267 268 270 272 273 274 275 276 277 277 277 277 277 277 277 277 277 277 277 277 277 280 282 284 285 286 287 288 289 289 290 290 290 290 291 291 291 292 292 294 299 307 312 313 313 314 313 312 312 312 311 311 310 310
265 265 264 263 263 263 263 262 262 261 261 260 260 260 260 261 261 262 262 263 263 263 263 263 264 264 264 264 264 265 265 267 268 270 271 273 274 276 277 277 278 278 278 278 278 277 277 277 277 277 277 278 279 282 283 284 285 285 286 288 289 289 290 290 290 290 291 291 291 293 294 297 304 311 313 313 314 313 312 311 310 309 309 308 307
264 264 263 263 263 263 263 262 261 261 260 260 260 260 260 261 261 262 262 263 263 263 263 263 263 263 264 264 264 265 265 267 268 270 271 273 274 275 276 277 278 278 278 278 278 278 277 277 277 278 278 278 279 281 282 283 284 285 286 287 288 289 289 289 290 290 291 291 291 292 294 296 301 309 312 313 313 312 310 308 307 308 308 308 307
263 263 262 263 263 263 263 262 260 260 260 260 260 260 260 261 261 262 262 262 262 263 263 263 263 263 264 264 264 265 266 267 268 270 271 273 274 275 276 277 277 278 278 278 278 278 278 278 278 279 279 279 280 282 283 284 285 286 287 287 288 289 289 289 290 290 291 291 291 294 296 298 302 308 312 312 312 311 310 308 307 308 308 307 306
263 262 263 264 264 264 264 262 260 259 259 260 260 260 261 261 262 262 262 262 262 263 263 263 263 263 264 264 265 266 267 267 268 269 271 273 274 275 276 276 276 277 277 278 279 278 278 279 279 280 281 281 282 283 284 285 286 286 287 288 288 289 289 289 290 290 291 291 292 295 300 302 304 308 311 311 311 311 311 309 309 309 308 306 305
262 263 264 264 264 265 264 262 260 259 259 260 260 260 261 261 261 262 262 262 262 262 263 263 263 264 264 265 266 266 267 267 268 270 272 273 274 275 275 275 275 276 277 278 279 279 279 279 279 280 282 282 283 284 284 285 286 287 287 288 288 289 289 290 290 290 291 291 291 294 301 305 306 308 309 310 310 311 311 310 309 309 308 306 305
262 263 265 265 265 266 264 261 260 260 260 260 260 260 261 261 261 261 262 262 262 263 263 263 264 265 265 266 266 267 268 268 269 271 272 273 273 274 275 275 276 276 277 278 279 280 280 280 280 281 282 283 284 284 285 286 287 288 288 289 289 289 289 290 290 290 291 291 290 294 301 306 306 307 308 308 309 310 310 310 310 310 309 306 305
263 264 266 266 266 267 264 261 260 260 260 260 260 260 261 261 261 261 262 262 262 263 263 264 265 266 266 267 267 268 268 269 270 271 272 272 273 274 275 275 276 277 277 278 279 280 280 281 281 282 282 283 284 285 286 287 287 288 289 289 289 290 290 290 290 290 291 291 291 295 302 305 305 306 307 307 308 309 309 309 310 310 309 308 307
264 265 266 266 267 266 263 261 260 260 260 260 260 260 260 261 261 261 262 262 263 263 264 265 266 267 267 268 268 269 269 270 270 271 271 272 273 274 275 276 277 277 278 278 278 279 279 280 281 282 283 284 284 285 286 286 287 288 289 289 290 290 290 290 290 291 291 290 292 298 303 304 304 305 306 306 307 308 308 309 309 310 309 308 308
264 265 266 266 267 266 263 261 260 260 260 260 260 260 260 260 261 261 262 263 263 264 265 266 267 268 268 268 269 269 270 270 270 270 271 272 273 274 275 276 276 277 277 277 277 278 278 279 280 282 283 284 285 285 286 286 287 288 289 290 290 291 291 291 290 291 291 291 293 299 303 303 304 305 305 306 307 307 308 308 309 309 309 308 307
265 265 266 266 266 264 263 261 260 260 260 260 260 260 260 260 261 261 262 263 264 265 266 267 268 268 269 269 269 270 270 270 270 270 271 272 273 274 274 275 275 276 276 277 277 277 278 279 280 281 282 284 285 286 286 286 287 288 289 290 291 291 291 291 291 291 291 291 294 299 302 303 304 306 306 306 307 306 307 306 306 307 307 306 306
265 265 266 266 264 262 261 261 261 260 260 260 260 260 260 260 261 261 263 264 264 265 267 268 268 268 269 269 270 270 270 270 270 270 271 272 273 273 273 274 274 275 276 276 277 277 278 279 280 281 282 283 285 287 288 287 287 288 289 290 291 291 291 291 291 291 292 292 295 300 302 303 304 306 306 306 305 305 305 304 304 304 305 305 305
266 265 266 265 262 260 259 260 260 261 260 259 259 260 260 260 261 262 263 264 264 266 268 269 268 268 269 269 270 270 269 270 270 270 272 273 273 273 273 273 274 274 275 276 277 277 278 279 280 281 282 283 285 287 288 288 288 289 290 290 291 291 291 291 291 292 292 293 296 301 303 303 304 305 305 304 304 304 304 304 304 303 304 304 303
265 265 265 264 261 258 258 258 259 260 260 259 259 259 260 260 262 262 263 264 265 267 268 268 268 269 269 269 270 270 269 270 270 271 272 273 273 273 272 272 273 274 275 275 277 277 278 279 280 281 282 284 286 289 289 289 289 290 290 291 291 291 291 291 291 292 292 293 297 301 302 302 303 303 303 303 304 303 303 304 304 303 303 303 301
265 265 264 262 260 258 257 258 258 258 259 260 260 260 260 261 262 263 263 264 266 268 268 268 269 269 269 269 270 270 269 270 270 271 271 272 272 272 272 272 273 274 274 275 277 278 280 281 281 282 283 285 288 290 290 290 290 290 291 291 291 291 291 291 292 292 292 294 298 301 301 301 302 302 302 303 303 303 303 304 304 303 302 303 301
265 264 263 261 258 257 257 258 258 258 258 258 260 261 263 263 262 262 263 265 266 267 267 268 268 269 269 269 269 269 269 270 270 270 271 271 271 271 271 271 273 273 273 273 275 277 279 281 282 283 285 287 289 291 291 291 291 291 291 291 291 291 292 292 292 292 293 295 299 301 301 301 301 302 302 302 302 302 303 303 303 303 303 303 302
265 264 262 260 257 257 257 257 257 257 258 257 258 259 261 263 264 264 263 263 264 266 266 267 267 268 268 269 269 269 269 269 269 270 270 270 270 270 270 270 271 271 270 270 271 272 274 276 278 279 280 282 286 288 290 292 292 291 291 292 292 292 292 292 293 293 294 296 299 300 301 301 301 301 302 302 302 302 302 303 303 303 303 303 303
265 263 262 259 257 256 256 257 257 257 257 257 257 257 258 259 262 264 263 262 262 263 264 265 266 266 267 268 269 268 268 268 269 269 269 269 269 269 268 269 270 270 268 267 268 268 270 272 273 273 274 276 278 280 284 288 291 292 292 292 292 292 292 293 293 294 295 297 299 300 300 301 301 301 302 302 302 301 301 302 302 302 303 304 303
264 263 261 258 257 256 256 256 256 257 257 257 257 257 257 257 258 260 261 262 262 263 263 263 264 265 266 267 268 268 267 268 268 268 267 267 268 268 267 267 269 269 267 266 266 267 268 269 270 271 272 272 274 275 277 280 284 289 292 293 293 293 293 293 294 294 296 298 300 300 300 301 301 301 301 301 301 301 301 301 302 302 302 303 303
263 262 260 258 256 256 256 256 256 256 257 257 257 257 257 257 257 256 257 259 260 261 261 261 261 263 264 266 267 267 267 267 267 266 266 266 266 266 265 265 266 267 266 265 266 266 267 268 269 270 270 271 272 273 274 275 277 281 286 290 292 293 293 294 294 294 296 298 300 300 300 301 300 301 301 301 301 301 301 301 301 301 301 302 302
263 261 259 257 256 256 256 256 256 256 256 257 256 256 256 256 256 256 256 256 257 258 258 259 260 261 263 264 265 265 265 265 265 265 265 264 264 263 263 263 264 265 265 265 265 265 266 267 268 269 269 270 270 271 272 273 274 276 278 283 288 293 294 294 294 295 296 298 299 300 300 300 300 301 301 301 300 300 300 300 301 301 301 302 302
262 261 259 257 256 257 257 257 256 256 256 256 256 256 256 256 256 256 256 256 256 257 257 257 258 259 261 262 264 264 263 263 264 264 263 263 262 261 261 262 263 263 264 264 265 265 266 267 268 268 269 269 270 270 271 271 272 273 274 277 282 288 293 294 294 295 296 298 299 300 300 299 300 300 301 300 300 300 300 301 301 301 301 301 301
262 260 258 257 257 257 258 257 257 256 256 256 255 256 256 256 256 255 255 255 256 256 256 256 257 258 259 261 263 262 261 261 262 261 261 261 260 259 260 261 261 262 264 264 265 265 266 266 267 267 268 268 269 269 270 270 271 271 273 274 277 283 290 294 295 295 296 298 299 299 299 299 299 300 300 300 300 300 300 300 300 300 300 301 301
262 260 258 257 257 258 258 258 257 257 256 256 256 256 256 255 255 255 255 255 255 256 255 256 256 256 257 259 262 261 259 259 260 259 259 259 258 258 259 260 260 261 263 264 264 265 266 266 267 267 267 268 268 268 269 270 270 270 271 272 274 278 285 292 295 296 296 298 299 299 299 299 299 299 300 300 300 300 300 300 300 300 300 300 300
262 260 257 257 258 258 258 258 258 257 257 256 256 255 255 255 255 254 254 254 255 255 255 255 256 256 256 259 262 261 258 258 258 258 258 258 257 257 258 259 259 260 262 263 264 264 265 266 266 267 267 267 268 268 268 269 269 270 270 271 272 275 279 285 292 296 297 297 298 299 299 299 299 299 300 300 300 300 300 299 300 300 299 299 300
261 260 258 257 258 259 259 258 258 258 257 256 256 255 254 254 254 254 254 254 254 254 254 255 255 255 256 259 262 261 257 256 257 257 257 257 257 257 257 258 258 259 260 262 264 264 265 266 266 267 267 267 267 268 268 268 269 269 269 270 271 272 274 277 283 290 296 298 298 298 298 299 299 299 299 300 300 300 300 299 299 300 300 300 300
261 260 259 259 259 259 259 259 259 258 257 256 255 255 254 254 253 253 253 253 253 254 254 254 255 255 256 259 261 260 257 256 257 257 257 256 257 256 256 257 258 258 260 261 263 264 264 265 266 266 267 267 267 268 268 268 268 269 269 269 270 270 271 272 275 280 287 293 298 299 298 298 299 299 299 299 300 299 299 299 299 299 299 299 300
260 260 259 259 259 259 259 259 259 258 257 256 256 255 254 254 254 253 253 253 253 253 253 254 254 255 256 258 259 258 256 256 256 256 256 256 257 257 256 256 257 258 259 261 263 263 264 265 266 266 267 267 267 268 268 268 268 268 269 269 269 269 270 270 271 273 278 285 292 297 298 298 298 299 299 299 299 299 299 299 299 299 299 299 299
260 259 259 259 259 259 259 259 259 259 258 257 256 255 255 254 254 253 253 253 253 253 253 253 254 255 256 256 257 256 256 256 256 256 256 256 257 257 256 257 257 258 259 261 262 263 264 264 265 266 267 267 267 267 268 268 268 268 268 269 269 269 269 269 270 271 273 277 284 292 297 298 298 298 299 299 299 299 299 299 298 299 299 298 298
260 259 259 259 259 259 259 259 259 259 258 257 257 256 255 255 255 254 253 253 252 252 252 252 253 253 254 255 255 255 255 255 255 256 256 257 256 256 257 258 259 259 259 260 262 263 263 264 265 266 267 267 267 267 268 268 268 268 268 269 269 268 268 268 269 270 271 273 278 285 293 297 298 298 298 298 298 298 298 298 298 298 298 298 298
259 259 259 259 259 259 259 259 259 259 259 258 258 257 256 255 255 254 254 253 252 252 252 253 253 253 253 254 254 254 254 254 255 256 256 257 257 257 258 260 260 259 259 260 261 262 263 264 264 265 266 267 267 267 268 268 268 268 268 269 269 268 268 268 269 270 271 273 275 281 289 295 297 297 298 298 298 298 298 298 298 297 297 297 297
259 259 259 259 259 259 259 259 259 259 259 258 258 257 256 256 255 255 254 253 252 252 253 253 253 253 253 253 253 253 253 254 255 256 256 257 257 258 259 261 262 261 260 260 261 262 263 263 264 264 266 267 267 267 267 268 268 268 268 268 269 268 268 268 269 270 271 273 275 280 287 294 296 297 297 298 298 298 298 298 297 297 297 297 297
258 258 258 259 259 259 259 258 258 258 258 258 258 257 257 256 255 255 254 253 253 253 253 254 254 253 253 253 253 253 253 254 254 255 256 257 258 259 261 262 262 262 262 261 261 261 262 263 263 264 265 266 267 267 267 267 268 268 268 268 268 268 268 268 269 270 271 273 275 279 287 293 296 296 297 297 297 297 297 297 297 297 297 297 297
258 258 258 258 258 258 258 258 258 258 258 258 257 257 257 256 256 255 254 254 253 253 254 254 254 254 254 254 254 254 254 254 255 256 257 258 259 260 261 262 262 262 263 263 262 262 262 263 263 264 265 266 267 267 267 267 268 268 268 268 268 268 268 268 269 269 271 272 274 278 284 290 293 294 295 296 295 295 296 296 296 296 296 297 296
257 258 258 258 258 258 258 258 258 258 258 257 257 257 257 256 256 255 255 254 254 254 254 254 254 255 255 255 255 255 255 255 255 256 257 258 259 260 261 262 262 262 263 263 262 262 262 263 263 264 264 266 267 267 267 267 268 268 268 268 268 268 268 268 268 269 270 271 273 275 278 282 286 289 291 293 294 295 295 295 295 294 295 295 295
257 257 257 257 257 258 258 258 258 257 257 257 257 257 256 256 256 256 255 254 254 254 255 255 255 255 255 255 255 255 255 255 255 256 256 257 258 260 261 262 262 262 262 263 263 262 262 263 263 264 264 265 266 267 267 267 267 268 268 268 268 268 267 268 268 269 269 270 270 272 274 276 279 281 283 285 289 291 293 293 293 293 293 294 294
257 257 257 257 257 257 257 257 257 257 257 257 257 256 256 256 256 255 255 254 254 254 255 255 255 255 255 255 255 256 256 255 256 256 257 257 258 259 260 261 261 262 262 263 263 263 262 263 263 264 264 265 266 267 267 267 267 267 268 268 268 268 267 267 267 268 268 269 269 270 271 272 274 275 276 278 281 284 286 289 290 292 292 293 293
Wind_Speed
11 13 14 16 18 19 21 22 23 25 26 27 28 28 29 29 30 31 32 32 32 33 34 34 34 34 34 35 34 34 34 34 34 34 33 33 32 31 32 31 32 33 32 33 31 30 33 35 34 33 31 30 32 35 33 31 31 29 30 30 29 28 24 17 11 14 22 26 28 33 38 36 30 46 43 39 53 57 51 52 56 62 64 62 65
12 14 15 17 19 20 22 24 25 26 27 27 28 29 29 30 30 31 32 32 32 32 33 33 32 33 33 33 32 32 34 34 33 32 32 33 32 31 30 30 32 32 31 33 31 29 31 32 30 27 25 27 31 34 34 30 27 26 28 29 28 28 27 23 15 11 16 22 25 29 35 38 31 39 48 43 47 50 46 48 53 59 62 61 61
13 14 16 18 20 21 24 25 26 26 27 27 28 28 29 30 31 31 32 32 31 30 30 30 31 31 31 31 31 31 32 32 31 31 31 31 31 31 31 30 32 32 32 32 31 30 31 30 29 28 27 28 31 32 33 31 27 27 28 30 29 28 29 29 22 13 13 19 23 26 30 35 35 33 46 50 52 52 47 49 55 56 56 57 59
13 15 17 19 21 23 25 26 26 26 26 27 28 29 30 30 30 30 31 31 29 28 28 28 30 30 30 30 30 31 31 31 31 31 30 31 31 31 31 31 32 32 33 33 31 30 31 31 30 30 29 29 30 30 31 29 27 27 27 29 30 29 29 31 29 22 16 16 20 26 30 33 35 32 42 49 52 55 52 53 57 57 57 57 58
13 15 17 20 23 24 25 26 26 26 26 27 28 29 29 30 29 29 29 28 27 28 28 28 29 29 30 30 31 32 31 31 32 32 31 31 32 31 31 32 32 33 33 33 32 31 32 32 30 28 28 28 27 28 30 29 27 26 26 26 28 29 30 30 30 29 24 18 18 25 30 31 33 32 41 48 45 44 47 53 57 56 57 58 58
14 16 18 21 23 24 25 25 25 26 27 28 28 29 29 29 29 29 28 27 27 28 28 28 28 29 30 31 31 33 33 32 33 33 33 32 31 32 32 32 33 33 33 33 32 32 32 33 32 30 29 29 28 27 28 28 27 26 26 27 28 29 30 30 29 28 27 26 23 24 27 29 30 29 39 49 43 35 37 44 51 54 55 54 53
14 17 19 21 23 24 24 25 25 26 27 28 28 28 28 28 29 29 28 27 27 27 28 28 28 29 30 31 32 33 34 33 33 33 33 32 32 31 31 31 32 32 32 32 32 33 33 33 33 31 30 31 31 31 32 31 29 27 26 26 26 27 28 29 28 27 26 25 23 22 26 29 28 26 36 49 47 41 39 34 33 41 49 50 49
15 17 19 20 22 23 24 24 25 26 26 27 28 28 29 29 29 29 27 26 26 26 27 29 30 31 31 32 33 34 34 34 33 33 32 32 32 31 31 31 31 31 31 32 32 32 32 33 33 33 33 33 32 33 34 33 30 29 28 27 26 24 23 22 21 21 22 21 20 22 25 26 27 26 33 42 34 31 40 37 30 36 44 47 50
15 17 18 19 21 22 23 24 25 25 26 27 27 28 29 30 29 29 28 26 26 27 28 30 31 33 33 33 33 33 33 33 32 31 31 31 31 31 30 30 30 31 31 32 33 33 33 33 34 34 35 36 35 35 35 35 33 30 27 25 25 23 22 19 16 15 16 15 15 19 19 17 21 21 21 29 28 27 38 40 35 40 44 42 46
14 16 17 19 20 21 23 23 24 25 26 27 28 29 30 31 31 31 30 29 29 30 31 31 31 33 34 34 33 32 32 32 31 31 32 33 33 32 30 28 28 28 29 30 31 31 32 33 34 35 35 36 38 38 38 39 39 36 31 27 25 24 20 17 15 14 12 10 12 15 13 11 18 22 20 27 38 39 39 37 31 35 37 31 31
13 15 17 19 19 20 21 22 23 25 26 27 29 30 31 32 31 31 31 31 31 30 31 33 34 33 32 32 32 32 32 32 32 33 34 35 35 34 32 31 28 27 27 28 29 29 29 30 31 32 33 35 36 37 37 39 39 39 37 35 32 31 26 20 17 16 13 11 14 15 11 10 19 29 30 32 38 39 39 38 33 29 26 19 15
12 15 16 17 18 19 20 21 23 25 26 28 30 31 32 31 31 32 31 31 31 31 33 34 33 29 29 31 32 32 33 33 33 34 35 35 35 34 33 32 30 28 28 28 30 30 29 30 30 30 30 32 33 33 34 36 37 37 37 37 37 37 34 29 24 21 18 14 14 16 16 16 22 31 36 37 36 37 39 39 37 33 26 19 14
12 15 15 16 17 18 19 21 23 25 27 29 30 30 31 30 30 31 31 32 33 32 31 29 27 26 28 31 32 32 33 34 34 35 36 36 37 36 33 30 28 30 31 31 32 32 30 30 31 30 30 31 32 33 33 32 33 34 35 36 37 37 35 32 30 28 27 23 18 21 26 26 27 34 42 46 43 36 33 34 38 39 32 27 27
12 13 14 15 16 16 18 21 23 25 27 28 29 29 30 30 30 30 31 31 31 28 27 27 28 28 29 30 31 33 34 35 35 36 37 37 37 36 34 31 29 30 32 32 31 31 31 32 31 30 30 31 31 30 29 28 28 28 28 30 32 33 32 31 31 31 32 32 28 29 35 36 36 42 48 53 53 43 36 37 40 42 40 38 39
11 12 13 14 15 17 20 22 24 26 27 28 29 28 28 29 29 29 29 28 26 26 27 29 29 29 28 30 32 34 35 36 37 38 38 37 36 35 33 32 29 29 29 28 29 30 30 31 31 29 30 32 32 30 27 25 25 25 26 27 29 31 31 31 32 32 32 34 36 36 40 42 43 49 53 57 60 56 53 53 52 49 44 36 33
10 12 13 14 15 18 21 22 24 26 27 28 28 28 28 29 29 29 27 26 25 26 27 27 28 30 31 33 33 34 37 38 37 38 38 37 35 33 31 29 29 31 30 28 30 31 30 29 30 29 30 32 32 31 29 27 27 27 27 28 29 30 33 34 34 34 36 39 41 41 42 45 46 50 58 63 63 61 54 47 44 42 35 25 22
9 11 13 14 17 19 21 22 23 25 26 27 27 28 28 28 28 27 26 27 27 28 28 28 29 31 33 34 34 36 38 39 38 38 38 36 33 32 29 27 29 32 33 33 35 34 31 30 30 30 31 33 33 33 31 29 29 29 28 28 29 29 33 35 34 36 39 42 46 49 49 49 51 51 61 65 62 60 47 31 33 37 28 16 14
8 11 13 15 17 19 20 21 22 23 25 26 27 27 28 28 27 26 27 28 28 28 29 30 30 32 33 35 36 36 38 40 40 38 36 34 32 31 29 26 26 27 30 33 34 33 30 30 30 31 31 32 32 32 31 30 29 27 26 26 25 27 31 33 32 34 38 41 44 48 47 48 53 54 61 63 61 63 53 39 43 42 24 14 14
8 11 13 15 17 18 19 20 20 21 23 25 26 27 27 27 27 27 27 27 28 29 29 30 31 32 33 35 36 35 37 42 41 36 34 33 32 31 28 25 23 23 24 26 28 30 30 29 29 31 32 32 32 32 31 31 30 28 26 24 22 25 29 30 28 30 33 35 38 40 39 43 50 53 59 62 63 68 63 57 56 47 29 22 22
8 11 14 15 17 18 18 19 20 21 22 24 25 25 26 27 28 28 28 27 28 29 29 30 32 32 33 34 35 35 38 42 39 34 32 32 32 31 29 25 22 21 23 23 23 26 28 28 28 29 31 33 34 34 33 33 32 30 29 26 23 25 27 27 26 27 30 31 36 38 35 40 46 49 54 58 63 67 64 62 61 54 42 34 30
9 11 14 15 16 17 17 18 19 20 21 23 24 25 25 27 28 29 29 28 28 29 30 30 31 31 32 32 33 36 39 38 34 31 32 32 32 31 28 25 23 22 24 24 22 21 22 24 27 29 29 31 32 33 33 33 32 32 31 30 29 29 27 26 26 28 30 31 36 37 33 37 41 44 48 52 58 59 57 60 63 61 55 46 38
10 12 13 15 16 16 17 18 19 20 21 22 24 26 26 25 27 28 28 28 28 28 30 30 29 30 31 30 33 37 36 31 29 31 32 32 32 32 30 29 28 26 23 22 22 22 21 22 26 28 29 29 30 31 31 31 31 32 32 32 33 33 32 30 29 28 28 28 31 29 27 32 33 37 43 47 51 52 52 55 59 61 60 60 57
10 12 13 15 15 15 17 18 19 19 21 22 23 25 26 25 26 27 26 27 26 26 28 29 27 28 29 29 32 33 31 29 30 32 32 32 34 34 32 31 29 27 23 21 22 24 24 24 25 28 28 29 30 31 31 31 31 32 33 33 33 33 34 31 28 27 26 26 26 21 23 27 28 32 37 41 45 47 50 53 54 54 55 60 65
10 12 13 14 14 15 17 18 19 19 21 22 23 24 25 25 25 25 25 25 24 24 26 27 26 26 27 29 32 31 28 30 31 30 32 34 35 34 32 31 30 28 26 25 25 26 26 26 27 29 30 30 31 33 33 33 32 32 33 33 30 29 28 26 25 25 22 21 21 16 21 27 30 33 38 43 46 47 51 53 51 50 50 51 49
10 12 13 13 13 15 17 18 19 19 20 21 23 24 25 25 24 24 23 22 23 24 26 26 25 25 24 27 31 31 30 31 31 31 33 34 32 32 32 31 31 30 27 26 27 27 29 30 32 34 33 32 31 32 33 33 32 32 32 32 28 26 25 25 24 22 18 17 17 16 23 30 36 40 45 50 50 47 46 43 38 37 37 37 35
10 12 12 12 12 15 17 19 20 20 20 21 21 22 23 24 24 23 21 22 26 29 28 25 24 24 25 26 29 31 32 31 32 33 33 31 31 33 33 31 31 29 27 26 28 29 30 30 30 31 31 30 29 29 29 31 30 31 31 31 29 27 26 25 22 19 16 16 18 18 26 34 40 43 45 46 44 41 40 37 33 32 33 35 33
10 11 11 11 12 14 16 18 20 22 22 21 21 21 22 22 21 21 22 25 29 31 29 26 24 23 25 26 28 30 31 29 30 33 33 31 32 33 32 30 29 28 25 25 26 27 28 28 27 27 28 29 29 26 25 27 28 27 28 30 29 29 28 26 24 22 19 18 20 21 28 33 35 36 36 37 38 38 41 41 37 33 35 36 32
10 11 10 10 12 13 14 16 19 21 23 23 21 20 20 21 20 21 23 26 28 29 30 30 27 26 26 26 26 27 27 27 30 34 34 34 34 34 31 29 28 27 27 29 29 29 28 27 25 22 23 23 22 19 19 23 24 23 24 26 27 27 27 26 24 24 22 22 22 20 23 26 29 31 33 34 35 37 41 43 39 35 36 34 25
10 10 9 10 11 13 14 14 16 18 21 24 24 21 17 17 18 21 23 24 24 26 29 30 30 29 28 27 26 25 25 28 34 37 37 36 36 34 32 31 30 30 32 33 31 27 24 20 17 15 16 16 14 12 13 16 18 20 22 23 23 23 22 21 20 21 22 22 20 18 21 22 25 30 33 32 32 35 38 40 39 37 36 32 25
9 9 8 9 11 12 14 14 15 16 17 20 24 25 21 17 16 18 22 24 23 24 25 27 30 31 29 28 30 29 29 33 38 39 37 36 36 35 33 32 33 35 35 33 27 19 13 10 9 10 12 12 9 8 9 11 12 14 17 20 21 20 19 20 19 19 20 21 19 21 25 24 24 26 29 29 29 32 36 38 39 37 34 29 24
8 8 7 8 10 11 12 14 14 15 16 16 18 22 24 24 22 20 21 23 24 25 25 26 29 30 29 30 33 34 34 38 40 39 38 37 36 36 34 32 33 34 34 31 25 20 17 12 9 12 14 12 10 10 8 9 10 12 13 16 19 19 18 19 19 18 19 20 20 22 26 27 26 25 28 30 31 32 34 35 36 36 35 31 26
7 7 6 7 9 9 11 12 13 14 15 15 15 16 19 22 25 26 27 26 23 23 24 26 29 31 30 31 34 36 37 39 41 40 39 38 36 36 35 32 30 34 39 37 27 19 18 15 11 13 15 13 13 16 15 10 8 12 13 12 13 17 18 19 18 18 19 19 19 21 24 26 29 28 29 31 31 30 30 30 32 34 33 31 29
6 5 4 5 8 9 10 11 12 12 13 14 15 15 15 16 19 24 29 31 28 25 25 26 28 31 31 31 34 37 38 40 41 41 41 39 37 36 34 29 28 33 39 36 24 17 18 17 14 15 16 15 15 17 17 17 14 10 11 12 13 15 17 18 18 18 20 20 20 23 24 25 29 30 28 30 30 29 27 28 30 31 28 25 24
4 3 4 5 6 8 9 9 10 11 12 13 14 15 16 16 16 18 23 27 29 30 32 31 30 31 30 31 35 39 39 39 39 40 42 41 38 35 33 33 36 40 39 32 23 18 17 16 16 17 17 17 18 18 17 17 18 17 13 11 13 15 15 16 17 18 20 20 20 23 24 24 26 27 26 26 27 27 27 27 26 25 23 21 21
3 3 4 4 4 6 7 8 9 10 11 12 13 14 15 17 18 18 18 19 20 24 29 33 34 32 31 32 36 39 38 37 38 39 42 42 40 38 37 36 36 35 34 32 28 23 18 16 17 19 20 19 20 20 19 18 18 18 18 16 13 13 14 15 17 18 19 20 19 22 25 24 25 27 28 27 25 23 23 26 26 25 25 24 22
3 4 4 3 4 5 5 6 8 9 9 10 12 14 15 16 18 19 19 19 19 20 24 30 32 33 32 32 34 38 38 35 35 37 40 42 43 40 34 27 23 22 24 28 29 26 23 21 20 21 22 22 22 22 20 20 21 20 19 19 17 14 12 15 16 16 19 20 19 21 25 25 25 27 27 27 27 26 25 28 28 27 28 27 24
4 5 5 3 3 3 4 6 7 7 8 10 13 15 16 17 19 19 19 20 20 21 23 27 29 31 33 34 36 39 39 36 36 40 44 47 50 46 34 25 22 21 22 27 29 28 26 26 25 24 24 23 24 24 23 22 23 23 22 21 20 18 14 14 17 16 18 21 20 20 23 25 26 28 26 24 25 26 27 29 29 27 30 31 27
4 5 5 2 2 2 5 7 7 8 9 11 14 16 17 17 19 19 19 20 20 20 23 25 25 27 30 33 36 40 41 39 41 45 47 48 50 47 37 30 28 24 22 26 30 28 26 27 29 28 27 26 26 26 26 25 24 24 25 24 22 21 19 13 17 19 18 20 21 22 23 24 26 29 29 25 25 25 26 28 28 26 27 29 26
4 5 5 1 1 2 5 6 8 9 11 12 14 16 17 17 19 19 20 20 20 20 22 23 23 25 29 31 34 37 38 36 36 38 40 41 44 43 38 34 33 30 26 28 31 30 28 29 30 30 30 29 29 28 28 27 27 26 26 25 22 22 23 17 11 17 20 20 20 21 24 25 26 29 29 27 27 27 27 28 29 27 25 26 27
6 6 6 4 2 3 5 6 7 9 11 12 14 15 15 16 16 17 18 19 19 20 21 21 23 26 29 30 31 32 31 29 29 32 35 37 40 43 41 35 33 33 31 30 31 31 30 29 30 31 32 31 31 31 30 29 29 28 27 25 22 20 22 24 19 9 14 21 22 21 23 26 27 28 27 26 28 30 30 29 30 31 30 30 30
7 7 6 6 4 4 5 6 7 9 10 11 12 13 14 14 14 15 16 17 18 19 20 21 23 26 28 29 29 29 28 26 28 32 35 35 37 43 45 40 36 35 34 32 32 33 32 31 31 32 33 32 32 32 31 31 31 31 28 27 26 23 22 26 28 23 12 12 20 23 24 26 28 28 27 26 27 30 31 30 31 31 31 31 30
7 7 7 6 5 5 5 6 6 8 9 10 11 12 12 13 14 14 15 16 17 19 20 22 24 27 28 28 28 29 30 29 29 32 36 36 38 42 45 44 41 38 34 32 33 33 33 33 33 32 34 34 34 33 33 32 32 31 29 29 29 27 25 27 29 29 25 15 10 20 25 26 27 28 29 29 27 27 28 28 30 30 29 28 29
8 7 6 6 5 5 5 6 6 7 8 10 11 11 11 12 13 14 14 15 16 17 19 22 24 27 29 29 30 31 32 32 32 33 35 37 40 42 43 46 47 44 37 35 35 35 35 35 34 33 34 35 34 33 33 32 32 31 30 30 29 28 28 30 31 31 30 25 16 11 20 27 28 27 28 28 27 26 26 27 28 29 28 28 28
7 7 6 6 5 4 5 5 6 7 8 9 9 11 12 13 13 14 15 15 16 17 18 20 23 25 27 30 32 32 32 31 32 34 36 38 40 41 43 47 51 49 43 39 38 37 37 37 36 35 36 37 37 35 34 33 33 32 31 31 31 31 32 33 34 32 29 26 22 15 13 23 28 27 26 27 27 26 25 25 26 26 26 26 26
7 7 6 5 5 4 4 5 5 6 7 7 8 10 12 12 13 14 15 15 16 17 19 21 22 23 25 27 29 30 30 30 32 34 35 37 39 41 45 50 52 51 47 43 40 39 39 39 38 37 37 39 40 39 37 36 36 35 33 32 31 32 34 33 32 30 28 24 21 17 12 17 24 26 26 27 28 27 25 26 27 26 25 25 25
8 7 6 5 5 4 4 4 5 5 6 7 8 10 11 11 13 13 14 15 16 17 19 21 22 23 24 25 27 28 29 29 31 33 34 36 38 41 45 49 50 50 49 45 41 39 40 40 40 38 38 39 41 42 41 40 39 38 37 36 35 35 35 34 31 30 28 25 20 16 12 14 21 24 25 27 28 28 26 27 27 26 26 26 26
8 7 6 5 4 4 4 4 5 5 6 7 8 10 10 11 12 12 13 14 15 17 19 21 22 23 24 24 25 27 28 28 29 31 33 35 37 40 43 47 48 49 49 47 43 41 41 41 40 39 38 39 42 44 43 43 42 41 41 41 40 40 40 38 35 32 29 25 20 15 7 9 17 21 23 24 24 24 25 25 25 26 27 27 26
9 8 6 5 5 4 4 4 5 5 6 7 8 9 9 10 11 12 13 13 15 16 18 20 21 23 24 24 25 26 27 28 29 30 32 34 36 38 41 44 46 47 47 47 45 43 42 42 42 40 39 40 43 44 45 44 44 44 45 44 44 44 44 42 39 35 32 28 24 18 9 4 9 14 18 21 21 21 21 21 22 23 25 24 25
9 7 6 5 5 4 4 4 4 5 6 7 8 8 9 9 10 11 12 13 14 15 17 19 20 22 23 24 25 26 27 28 29 30 31 33 34 36 37 40 42 45 46 47 45 43 42 43 43 42 40 40 41 44 45 46 46 47 47 47 46 45 46 46 44 39 35 33 29 24 19 13 10 9 10 14 18 20 20 20 20 22 22 21 22
9 7 6 6 5 4 4 4 4 5 5 6 7 7 8 9 10 11 12 13 14 15 16 18 19 20 21 23 25 26 26 27 28 29 30 31 32 33 35 37 39 42 44 45 44 42 42 43 44 43 42 40 40 43 46 46 47 48 48 47 47 47 47 48 47 43 40 37 34 31 27 23 20 17 14 10 10 13 16 18 20 22 22 21 22
9 7 6 6 5 4 4 4 4 4 5 5 6 7 7 8 9 10 11 12 13 15 16 17 18 19 19 21 22 23 25 26 27 27 28 29 30 31 33 34 37 39 41 42 42 42 41 42 43 44 43 39 38 42 46 46 47 49 49 48 47 48 47 47 47 46 44 40 37 35 32 30 29 27 24 19 15 13 12 13 15 17 19 20 22
Wind_Direction
303 306 310 315 318 320 319 316 314 314 314 313 311 310 310 309 308 307 305 303 303 301 300 297 296 295 293 292 289 287 288 288 288 285 280 277 275 274 274 272 269 269 270 270 272 275 275 272 270 268 268 270 273 279 273 249 233 234 234 235 236 236 238 238 245 267 263 255 255 258 265 269 227 192 188 186 182 180 175 175 177 173 172 175 175
304 308 315 319 319 319 317 317 318 318 317 315 313 312 312 311 310 308 305 304 304 302 300 299 297 295 292 290 287 287 288 288 287 284 280 277 275 275 274 272 270 270 270 270 271 274 274 270 269 270 272 272 270 274 276 259 237 233 234 233 237 237 236 239 242 258 268 258 254 256 258 266 251 201 185 183 182 179 176 174 175 173 173 174 174
309 316 321 321 320 320 321 322 322 319 317 315 314 313 313 312 312 309 306 306 306 302 299 298 296 294 292 289 287 288 289 288 286 284 279 277 277 276 274 271 271 270 269 270 270 272 273 273 276 279 278 275 271 271 273 264 246 239 239 236 238 240 236 238 243 246 264 263 257 257 254 259 259 217 186 181 180 177 175 173 173 173 173 172 171
318 323 323 322 324 325 325 324 321 318 316 314 314 314 314 313 311 310 308 306 304 301 299 298 296 293 292 290 289 289 289 287 287 284 279 277 277 277 275 272 271 270 268 268 270 270 270 271 275 276 273 270 268 268 270 267 253 243 243 241 239 242 239 238 243 245 256 266 258 254 251 254 258 229 188 178 179 177 175 173 171 170 170 170 170
324 325 326 327 328 328 325 323 320 317 316 315 315 315 314 312 311 310 309 305 303 303 301 300 298 294 292 291 290 290 288 287 286 284 279 277 277 276 276 274 272 270 269 268 268 269 268 270 272 272 270 268 266 266 268 268 260 248 245 247 245 245 244 240 241 243 248 257 258 255 250 249 254 234 191 175 176 177 173 170 169 168 167 169 171
328 330 332 330 328 326 323 321 317 316 317 316 316 314 313 312 311 311 310 307 305 304 303 300 298 295 293 292 290 289 288 287 284 282 279 277 277 276 274 273 272 270 269 269 269 268 267 269 270 268 266 266 266 266 267 269 266 253 245 248 248 249 248 243 241 241 245 251 253 252 249 245 249 233 194 176 172 171 170 168 168 167 166 167 171
333 334 333 329 325 323 320 318 316 318 318 316 315 314 313 313 313 313 312 310 307 306 305 301 298 296 294 292 291 289 288 286 283 280 278 277 276 275 273 271 271 270 269 269 269 268 268 268 269 267 263 262 262 263 264 265 264 258 250 246 247 249 249 246 242 239 242 249 250 247 245 242 243 230 194 177 171 170 169 165 162 164 165 166 168
334 333 330 325 322 319 317 317 318 319 317 315 315 315 316 317 317 316 315 312 309 306 304 302 299 297 294 291 290 289 287 286 283 280 278 276 273 272 271 269 269 270 270 270 269 268 269 269 268 266 264 263 260 259 259 257 256 257 253 249 248 249 253 254 250 244 243 247 247 242 240 238 239 228 192 174 170 172 170 164 158 161 165 167 168
331 329 326 321 318 317 317 319 320 318 317 317 319 320 321 321 320 319 317 314 309 305 303 301 298 297 294 291 290 289 287 284 283 280 278 276 273 270 268 264 263 264 266 267 266 264 265 267 268 265 263 262 260 259 259 257 257 257 253 248 245 245 253 261 261 259 256 252 247 238 234 233 230 225 197 172 166 170 170 166 161 162 164 164 166
328 326 320 316 316 318 320 319 318 317 319 322 325 326 325 324 323 321 319 315 311 308 305 302 298 295 293 292 290 289 287 284 283 282 280 278 275 272 270 265 259 258 260 262 262 259 258 261 265 266 265 264 262 260 259 259 260 260 257 253 248 245 249 253 255 260 261 260 257 236 224 233 223 211 200 177 167 168 169 165 159 159 158 155 160
326 320 314 314 317 320 319 316 317 321 326 329 329 328 327 325 324 321 319 317 314 312 309 305 302 296 291 291 291 290 288 286 285 286 284 281 279 275 273 271 267 262 260 260 263 263 262 264 266 267 266 264 263 260 259 258 257 256 256 256 253 249 248 247 249 254 253 259 266 249 223 229 224 207 193 177 169 169 168 162 155 153 154 153 153
322 312 311 316 320 318 315 316 323 328 332 332 330 329 327 325 324 321 320 319 317 314 311 307 303 297 293 294 295 293 292 290 289 289 287 284 282 279 276 273 271 268 264 261 263 265 267 269 271 271 268 265 262 260 259 258 256 255 257 257 254 250 247 244 244 249 253 255 263 263 245 225 221 212 193 175 168 170 167 160 157 158 160 162 159
313 307 313 319 317 314 316 324 331 334 334 333 331 329 327 324 324 322 320 319 318 314 311 309 306 303 302 300 298 297 296 295 294 292 290 287 284 281 278 273 267 265 264 262 262 261 261 265 269 270 270 269 265 259 256 256 256 257 258 255 251 246 243 242 244 249 256 256 256 263 256 233 217 211 195 175 165 168 168 162 162 163 164 169 169
306 309 317 317 313 317 327 335 337 336 335 334 331 329 326 324 322 321 320 320 318 315 313 312 310 309 307 303 301 300 298 297 297 296 294 292 288 284 282 277 267 261 260 258 257 256 255 257 261 263 266 269 267 262 257 256 257 257 256 252 248 246 247 247 249 253 255 257 256 257 257 245 220 206 194 176 166 168 170 167 167 169 171 174 172
306 314 316 315 319 330 339 341 340 337 336 334 330 327 325 323 321 322 321 319 317 316 315 314 311 310 308 306 304 302 299 299 300 299 297 296 294 291 286 279 270 264 261 257 256 257 255 254 254 255 259 263 264 264 260 259 262 263 261 258 254 254 255 252 253 255 255 258 259 256 258 254 228 205 191 178 172 174 176 174 172 170 166 162 159
310 315 313 319 332 341 344 343 340 338 336 332 329 325 323 322 322 323 321 318 316 315 314 314 312 310 309 308 304 301 301 302 302 302 301 299 298 296 290 283 276 271 266 261 259 259 257 256 256 255 256 257 258 260 260 260 265 266 264 264 261 259 259 258 258 260 261 263 264 262 262 259 241 212 190 179 176 176 175 172 166 159 151 145 148
309 312 317 330 341 345 346 344 341 339 335 330 325 323 322 322 323 323 320 318 317 316 314 313 312 310 309 308 306 304 303 304 305 304 304 302 301 301 297 293 288 282 274 267 263 259 255 256 257 253 251 251 254 258 259 257 257 257 256 259 260 260 262 263 263 265 266 267 269 271 268 259 247 222 192 180 175 170 164 158 158 156 153 153 157
308 318 330 339 343 347 348 347 342 336 331 326 322 321 322 321 321 322 320 316 315 315 314 312 311 311 310 309 308 305 304 306 307 305 305 304 304 303 302 301 299 294 285 275 267 260 256 256 256 251 248 248 250 254 255 252 249 249 250 253 257 259 260 262 265 267 270 272 275 277 269 254 243 222 192 177 171 167 163 163 165 163 159 160 162
322 332 341 344 347 352 351 348 343 334 327 324 322 321 322 321 320 320 318 316 314 313 313 311 310 311 311 310 308 306 305 307 307 304 304 307 307 306 306 306 304 302 297 285 272 263 259 258 256 253 251 251 252 252 252 250 248 248 248 251 253 255 257 261 264 269 273 278 282 280 264 243 231 213 188 174 170 170 171 170 168 167 165 165 164
342 343 347 350 354 355 353 348 342 334 328 325 324 322 322 322 322 321 319 317 314 313 313 311 308 309 312 312 310 309 308 307 306 305 306 308 310 311 309 305 301 299 299 292 279 268 261 256 256 256 253 252 253 253 251 248 246 244 243 244 247 252 259 261 262 268 273 278 284 281 256 228 214 198 182 173 171 174 175 173 171 171 168 163 163
350 353 355 359 358 355 353 349 343 337 333 330 326 324 325 325 324 322 320 317 316 314 314 313 310 310 314 313 312 313 311 306 305 310 312 311 312 312 308 302 298 296 296 293 286 277 263 253 254 258 256 254 253 251 249 247 246 245 243 244 248 252 258 262 263 269 272 275 283 276 242 211 199 188 178 173 174 176 176 175 174 173 170 166 167
0 2 4 4 358 353 353 350 345 341 339 336 330 327 329 329 326 324 321 318 317 316 316 316 313 312 315 317 316 316 315 310 311 315 316 314 315 314 308 304 301 297 293 290 287 286 280 268 263 262 259 256 254 253 251 249 248 249 249 252 254 252 252 256 260 264 268 272 278 264 220 194 189 184 177 174 176 178 177 177 177 176 174 174 175
10 9 11 6 357 352 352 351 348 346 343 340 335 331 332 332 329 327 323 320 320 320 320 320 318 317 319 323 323 320 320 322 321 318 317 318 318 316 312 308 306 301 296 292 288 289 288 283 277 272 266 260 255 253 253 251 250 251 253 256 257 251 246 247 251 256 262 269 270 246 197 180 182 180 176 174 176 176 176 178 180 179 178 180 182
17 15 16 8 356 353 353 351 351 351 348 344 338 335 335 334 330 329 327 324 323 323 323 324 324 322 322 327 329 326 324 325 324 320 320 321 320 319 318 315 312 308 301 294 289 287 284 281 279 280 278 272 263 254 251 251 251 251 252 256 257 248 239 238 245 251 256 263 261 227 182 177 180 178 176 175 175 177 178 178 179 180 181 183 182
24 21 18 9 0 356 355 354 354 352 351 348 342 337 336 334 331 330 329 330 329 326 325 328 329 325 324 327 331 330 327 326 325 321 320 322 323 324 322 319 316 312 304 295 290 286 284 282 281 282 282 280 275 263 251 247 249 249 249 252 251 242 235 235 242 249 249 254 252 215 179 178 182 181 179 176 175 176 175 172 171 173 175 174 171
29 25 17 11 8 2 357 356 355 352 352 352 348 342 338 334 330 329 331 334 331 326 327 332 331 329 328 329 330 332 330 328 326 323 321 325 329 330 327 324 321 317 309 299 293 290 289 286 284 282 280 281 283 272 250 241 244 247 246 245 239 232 231 234 237 240 241 249 247 214 184 180 183 182 178 175 173 171 168 163 160 161 164 163 159
33 28 19 12 11 7 359 355 352 351 352 351 348 346 343 338 332 330 333 334 328 327 333 337 334 330 329 328 330 333 332 330 329 328 329 333 335 334 332 329 326 324 320 310 301 296 294 290 286 283 281 282 285 278 255 240 241 242 238 236 232 229 231 233 235 237 242 248 242 214 188 181 179 175 170 169 169 168 167 165 163 161 162 160 154
38 31 22 15 12 7 359 354 352 351 350 349 345 343 342 341 338 336 338 336 330 331 339 339 333 332 331 328 331 334 333 334 335 335 336 339 339 338 338 335 332 331 328 320 309 298 291 288 285 281 282 283 283 276 254 238 236 235 231 228 228 229 231 234 237 240 245 251 243 213 185 176 172 165 164 167 169 170 169 167 166 163 160 158 154
45 36 25 17 12 4 356 355 355 353 352 351 350 347 344 341 339 341 346 344 337 337 341 340 338 338 335 333 336 338 336 337 339 340 341 342 342 344 344 342 340 339 335 329 317 297 280 275 274 274 277 280 279 269 247 230 227 227 226 225 226 226 227 231 236 239 243 247 235 198 173 171 171 165 164 167 169 170 170 169 167 164 161 160 162
49 40 29 19 12 0 353 355 357 356 355 352 350 351 355 358 355 350 348 347 345 344 343 342 343 345 342 341 345 347 342 340 342 345 345 345 347 350 348 347 350 350 349 351 350 336 313 296 291 293 291 285 281 267 240 220 214 218 223 225 226 227 229 231 233 237 242 239 220 185 170 170 172 168 166 166 166 168 171 171 168 165 165 166 167
50 39 29 21 10 356 350 353 356 357 357 353 347 346 350 360 9 8 359 352 349 349 347 346 348 350 349 348 351 352 350 348 349 351 351 350 352 353 350 352 358 0 3 11 16 8 358 351 343 340 336 324 319 313 280 235 212 210 219 226 227 226 227 232 233 233 235 230 211 186 175 172 171 172 170 168 167 168 171 171 170 170 172 173 170
55 40 29 20 7 354 349 352 356 356 354 352 348 343 343 350 358 5 7 3 354 347 347 349 351 353 353 353 355 357 356 354 354 356 356 354 354 355 354 354 360 8 15 22 22 6 355 355 349 347 347 338 334 335 326 304 253 219 212 217 225 223 223 230 234 229 225 221 203 186 181 176 172 173 174 170 168 169 169 169 172 175 176 176 172
59 49 41 25 4 352 351 354 356 357 353 347 345 347 348 348 346 348 356 2 2 360 357 353 353 354 354 355 360 2 1 359 359 360 1 358 357 357 354 354 4 16 21 23 18 358 352 354 349 346 345 338 334 335 333 331 323 287 238 221 221 224 227 235 237 227 221 217 200 186 186 182 174 172 174 173 170 170 170 171 175 176 176 176 173
71 70 58 33 1 349 354 358 359 359 357 351 348 350 354 357 349 341 342 350 356 359 359 357 357 356 354 356 2 4 3 2 2 3 4 3 0 357 356 2 14 20 20 19 11 356 349 349 347 347 346 340 337 337 333 332 334 329 312 278 245 232 231 237 236 224 217 215 202 188 186 186 178 172 171 173 172 171 171 174 174 173 173 175 173
96 100 82 50 8 353 358 6 8 6 360 354 355 358 359 358 356 351 344 341 341 343 346 350 354 356 356 359 2 4 3 2 3 5 8 7 5 3 4 9 13 14 12 11 6 355 348 346 346 347 346 341 339 338 334 331 332 331 328 319 294 260 236 230 231 224 212 209 204 191 184 184 183 177 172 173 174 172 172 175 175 174 176 177 174
122 124 103 67 14 358 9 23 23 14 3 359 2 7 8 5 0 355 351 347 342 338 340 345 350 355 0 3 3 2 2 2 2 4 8 10 12 12 9 5 2 0 3 4 360 354 355 355 350 347 346 343 341 339 336 334 334 328 322 321 315 295 256 228 225 222 211 205 201 192 184 182 182 181 176 174 175 176 175 177 178 177 177 176 172
142 136 102 64 359 359 33 43 38 24 14 14 15 16 16 12 5 359 354 349 346 343 343 346 349 353 358 2 2 2 2 3 5 8 10 13 16 16 10 359 353 357 3 4 359 356 358 359 355 352 348 345 342 341 338 337 336 333 328 324 320 314 292 247 224 217 211 205 198 191 186 183 182 181 180 177 176 178 178 178 178 178 177 175 172
158 140 102 48 323 19 48 47 44 37 30 27 25 23 20 14 7 2 357 351 348 345 346 349 353 352 352 354 357 0 3 6 8 10 10 11 13 13 8 359 354 352 356 2 2 358 357 358 358 356 352 348 346 344 342 341 339 337 335 329 324 330 331 292 233 215 210 207 199 190 187 185 183 183 183 180 178 178 180 180 179 176 176 175 173
167 146 124 126 254 64 58 49 44 40 36 34 30 27 23 15 8 3 357 350 348 348 347 350 354 352 350 351 355 360 4 7 6 5 5 6 9 10 7 1 356 352 353 0 2 0 358 358 358 357 356 353 351 350 348 345 342 340 340 337 332 338 346 334 270 222 209 206 201 193 188 187 186 186 187 185 181 179 179 180 180 177 176 178 180
166 155 144 146 143 96 71 58 50 44 39 36 33 29 25 17 8 2 356 349 346 347 348 349 352 352 352 353 358 3 4 3 1 1 2 4 7 8 7 4 358 353 352 356 360 0 359 357 358 359 358 356 354 354 352 351 348 346 345 345 341 337 343 348 341 295 223 207 200 194 191 189 187 187 189 189 185 181 179 180 182 181 180 182 183
163 157 146 136 128 108 88 71 57 49 45 41 37 33 26 19 12 5 359 352 346 346 349 350 352 356 357 356 359 5 7 3 359 1 3 4 4 5 7 6 1 354 352 354 358 359 359 358 359 0 0 358 356 356 355 355 354 352 348 349 348 343 343 351 354 348 320 238 206 196 193 191 188 187 190 191 188 185 182 180 181 183 184 184 182
161 153 140 133 129 114 94 80 67 58 51 45 43 39 29 23 19 12 4 357 350 349 351 352 354 1 3 360 359 4 8 6 2 3 4 3 3 4 7 7 3 358 355 355 358 359 359 359 359 1 2 0 358 357 357 357 356 355 352 351 351 349 347 349 351 351 346 327 246 205 196 193 191 190 190 189 188 186 185 182 182 183 184 184 181
161 154 142 135 130 113 94 79 68 61 54 46 43 40 34 29 25 17 8 2 357 354 355 355 356 0 4 4 5 7 8 6 4 3 3 3 3 4 5 6 6 4 2 1 2 2 1 1 1 1 3 3 1 0 1 360 358 356 355 353 352 350 349 350 350 349 346 340 319 249 207 196 194 193 192 190 187 185 185 185 184 184 184 182 180
161 158 155 146 131 115 98 83 70 61 56 51 45 41 36 33 29 22 14 6 1 359 359 359 358 360 2 5 6 6 5 3 2 2 2 3 4 4 4 7 9 10 8 5 4 4 4 4 3 2 3 5 5 4 5 4 3 1 359 356 355 352 351 350 350 348 343 337 328 305 239 204 197 195 193 189 187 185 185 185 185 185 184 181 179
166 165 164 155 139 125 104 87 78 69 61 55 49 44 39 34 29 25 18 8 3 2 3 4 5 3 3 4 4 3 1 1 1 2 2 3 3 4 6 9 12 12 9 7 6 5 6 6 4 2 2 5 6 7 7 7 7 6 4 2 1 357 353 351 351 351 349 342 332 317 276 219 202 197 193 190 188 187 185 185 186 186 184 181 181
173 172 170 161 144 129 109 90 81 71 62 57 49 42 38 33 29 26 20 12 7 5 5 7 8 6 5 5 4 2 0 0 1 2 3 4 3 4 7 11 14 14 11 10 9 7 7 7 5 3 3 4 6 8 9 8 8 8 8 8 6 3 0 359 0 1 358 353 344 327 291 231 206 200 198 194 191 190 189 187 186 186 185 184 184
179 177 173 165 148 129 112 99 87 73 64 59 49 40 35 31 28 26 22 16 11 9 9 10 10 7 6 6 4 2 1 1 1 2 4 4 4 5 9 13 15 14 14 14 13 10 8 8 6 5 5 7 8 9 9 9 8 9 10 10 9 8 9 11 12 10 7 5 1 351 317 222 201 198 198 194 192 193 192 190 188 188 187 187 187
180 178 172 163 150 136 119 101 88 77 67 59 49 40 34 28 26 25 23 19 14 12 12 12 11 9 7 6 4 3 3 2 3 5 7 7 7 8 10 12 13 14 15 16 15 12 10 9 7 6 7 9 10 10 10 10 10 10 11 11 9 10 16 22 21 18 17 18 18 19 29 118 168 181 188 189 189 190 189 188 188 189 188 189 188
179 177 173 163 153 140 124 106 90 79 70 60 51 42 33 27 25 25 21 18 16 15 14 13 12 11 9 6 5 5 5 4 5 6 7 8 8 9 10 11 13 14 15 16 15 12 11 10 9 8 8 11 12 12 11 12 11 11 11 11 9 12 20 27 28 27 27 27 27 31 42 61 88 115 147 171 182 186 186 184 182 182 182 185 185
180 175 171 166 157 142 126 111 94 82 73 61 50 42 32 25 24 24 19 15 16 17 16 15 13 12 10 7 5 4 4 4 3 4 6 8 9 9 10 11 13 13 14 15 15 14 11 11 11 10 9 11 14 14 13 13 13 13 12 11 11 15 22 28 32 33 34 32 31 34 39 48 59 65 70 93 136 161 173 178 178 177 177 178 178
181 178 174 169 160 145 132 116 99 88 76 61 49 40 30 23 21 21 17 13 12 14 15 15 14 12 11 9 6 4 4 3 3 5 7 9 10 10 10 11 12 13 13 15 16 15 12 12 12 11 10 11 14 15 15 15 15 15 14 13 13 17 23 28 32 36 37 37 36 37 39 44 49 50 50 56 70 91 117 143 159 168 173 176 177